Little Bear Creek Observed Data For Previous 48 Hours

Caption
Day and Hour Reservoir Elevation (behind dam)* Tailwater Elevation (below dam)* Average Hourly Discharge*
1/16/2018 1 AM CST 608.57 544.73 75
1/16/2018 2 AM CST 608.56 544.73 75
1/16/2018 3 AM CST 608.56 544.74 75
1/16/2018 4 AM CST 608.56 544.73 75
1/16/2018 5 AM CST 608.56 544.73 75
1/16/2018 6 AM CST 608.56 544.73 75
1/16/2018 7 AM CST 608.56 544.73 75
1/16/2018 8 AM CST 608.56 544.60 75
1/16/2018 9 AM CST 608.57 544.36 82
1/16/2018 10 AM CST 608.57 544.35 82
1/16/2018 11 AM CST 608.58 544.35 82
1/16/2018 12 PM CST 608.58 544.35 82
1/16/2018 1 PM CST 608.59 544.35 82
1/16/2018 2 PM CST 608.59 544.35 82
1/16/2018 3 PM CST 608.60 544.35 82
1/16/2018 4 PM CST 608.61 544.36 82
1/16/2018 5 PM CST 608.61 544.35 82
1/16/2018 6 PM CST 608.61 544.28 82
1/16/2018 7 PM CST 608.61 544.26 6
1/16/2018 8 PM CST 608.62 544.26 6
1/16/2018 9 PM CST 608.61 544.86 105
1/16/2018 10 PM CST 608.61 544.87 105
1/16/2018 11 PM CST 608.61 544.86 105
1/17/2018 12 AM CST 608.61 544.86 105
1/17/2018 1 AM CST 608.61 544.86 300
1/17/2018 2 AM CST 608.60 544.86 300
1/17/2018 3 AM CST 608.60 544.86 300
1/17/2018 4 AM CST 608.60 544.86 300
1/17/2018 5 AM CST 608.59 544.87 300
1/17/2018 6 AM CST 608.59 544.86 300
1/17/2018 7 AM CST 608.59 544.86 300
1/17/2018 8 AM CST 608.59 544.86 300
1/17/2018 9 AM CST 608.58 545.12 300
1/17/2018 10 AM CST 608.57 545.14 285
1/17/2018 11 AM CST 608.57 545.15 285
1/17/2018 12 PM CST 608.56 545.15 285
1/17/2018 1 PM CST 608.55 545.15 285
1/17/2018 2 PM CST 608.54 545.15 285
1/17/2018 3 PM CST 608.53 545.15 285
1/17/2018 4 PM CST 608.53 545.15 160
1/17/2018 5 PM CST 608.52 545.15 160
1/17/2018 6 PM CST 608.51 545.14 160
1/17/2018 7 PM CST 608.50 545.16 160
1/17/2018 8 PM CST 608.50 545.14 160
1/17/2018 9 PM CST 608.49 545.13 145
1/17/2018 10 PM CST 608.48 545.14 145
1/17/2018 11 PM CST 608.48 545.13 145
1/18/2018 12 AM CST 608.47 545.13 285
1/18/2018 1 AM CST 608.47 544.35 285
1/18/2018 2 AM CST 608.47 544.27 285
1/18/2018 3 AM CST 608.47 544.26 285
1/18/2018 4 AM CST 608.48 544.26 285

Elevations are in feet above sea level. Discharges are in cubic feet per second and are reported at the end of the hour.